Regional Weather Roundup
Issued by NWS

Home | Current Version | Previous Version | Graphics & Text | Print | Product List | Glossary On
Versions: 1 2 3 4 5 6 7 8 9 10 11 12 13 14 15 16 17 18 19 20 21 22 23 24 25 26 27 28 29 30 31 32 33 34 35 36 37 38 39 40 41 42 43 44 45 46 47 48 49 50
000
ASUS43 KMKX 170310
RWRWI

WISCONSIN REGIONAL WEATHER ROUNDUP
NATIONAL WEATHER SERVICE MILWAUKEE/SULLIVAN WI
900 PM CST SAT DEC 16 2017

NOTE: "FAIR" INDICATES FEW OR NO CLOUDS BELOW 12,000 FEET WITH NO
SIGNIFICANT WEATHER AND/OR OBSTRUCTIONS TO VISIBILITY.

WIZ001-002-006>008-014>016-023>028-170400-
NORTHWEST WISCONSIN

CITY           SKY/WX    TMP DP  RH WIND       PRES   REMARKS
SUPERIOR ARPT  MOCLDY    20  14  76 CALM      30.12S
ASHLAND        CLOUDY    21  14  74 CALM      30.13R
HAYWARD        CLOUDY    21  13  71 CALM      30.09R
SIREN          CLOUDY    22  16  78 CALM      30.10S
CUMBERLAND     CLOUDY    19  14  79 CALM      30.08S
RICE LAKE      CLOUDY    20  15  84 CALM      30.11R
CHETEK         CLOUDY    21  17  83 CALM      30.10R
LADYSMITH      CLOUDY    23  18  83 CALM      30.11R
EAU CLAIRE     CLOUDY    24  20  84 E3        30.10R
MENOMONIE      MOCLDY    19  17  90 CALM      30.10R
NEW RICHMOND   CLOUDY    16  13  86 CALM      30.10R
OSCEOLA        PTCLDY    23  17  77 E3        30.13S
$$

WIZ003>005-009-010-017-018-170400-
NORTH CENTRAL WISCONSIN

CITY           SKY/WX    TMP DP  RH WIND       PRES   REMARKS
MANITOWISH WTR CLOUDY    18  14  84 SE6       30.07R WCI  10
ARBOR VITAE    CLOUDY    19  15  84 SE7       30.08R WCI  10
WOODRUFF       CLOUDY    19  15  84 SE7       30.08R WCI  10
RHINELANDER    CLOUDY    19  18  95 E7        30.10R WCI  10
EAGLE RIVER    CLOUDY    18  13  80 SE5       30.08R WCI  11
LAND O LAKES   CLOUDY    19  15  86 SE3       30.10R
PHILLIPS       CLOUDY    19  14  82 E3        30.08R
TOMAHAWK       CLOUDY    19  17  90 CALM      30.09R
MEDFORD        CLOUDY    21  17  84 E6        30.07F WCI  13
MERRILL        CLOUDY    21  19  91 SE3       30.11R
$$

WIZ029-030-035-036-043>047-170400-
CENTRAL WISCONSIN

CITY           SKY/WX    TMP DP  RH WIND       PRES   REMARKS
WAUSAU         CLOUDY    21  18  88 E6        30.10R WCI  13
MOSINEE        CLOUDY    21  19  93 E7        30.11R WCI  13
MARSHFIELD     CLOUDY    23  18  81 E8        30.07S WCI  14
STEVENS POINT  CLOUDY    21  19  92 E7        30.11R WCI  13
WAUPACA        CLOUDY    26  21  81 NE5       30.13S WCI  20
WAUTOMA        CLOUDY    25  20  81 NE6       30.12R WCI  18
WISC RAPIDS    CLOUDY    24  18  77 E7        30.11R WCI  16
CAMP DOUGLAS   CLOUDY    26  22  86 E5        30.10R WCI  20
$$

WIZ011>013-019>022-031-037>040-048>050-170400-
NORTHEAST WISCONSIN

CITY           SKY/WX    TMP DP  RH WIND       PRES   REMARKS
ANTIGO         CLOUDY    19  18  97 E6        30.10R WCI  11
SHAWANO        CLOUDY    24  19  83 NE3       30.14S
OCONTO         CLOUDY    23  19  85 CALM      30.15S
STURGEON BAY   CLOUDY    27  22  81 E5        30.15R WCI  22
GREEN BAY      CLOUDY    28  22  78 NE9       30.14R WCI  19
MANITOWOC      CLOUDY    30  25  81 E6        30.13S WCI  24
APPLETON       CLOUDY    25  19  80 NE6       30.10S WCI  18
CLINTONVILLE   CLOUDY    23  18  80 NE5       30.14R WCI  17
OSHKOSH        CLOUDY    27  22  81 NE8       30.11R WCI  19
$$

WIZ032>034-041-042-053>061-170400-
SOUTHWEST WISCONSIN

CITY           SKY/WX    TMP DP  RH WIND       PRES   REMARKS
LA CROSSE      CLOUDY    29  26  89 E7        30.09R WCI  22
SPARTA         CLOUDY    26  24  96 E6        30.10S WCI  19
VIROQUA        CLOUDY    28  28 100 CALM      30.05R VSB 1
BOSCOBEL       CLOUDY    32  28  85 NE6       30.09R WCI  26
PRAIRIE DU CHI CLOUDY    30  25  81 NE3       30.07R
PLATTEVILLE    CLEAR     31  30  98 E13       30.04R WCI  21
$$

WIZ056-057-062-063-064-067-068-170400-
SOUTH CENTRAL WISCONSIN

CITY           SKY/WX    TMP DP  RH WIND       PRES   REMARKS
REEDSBURG      CLOUDY    27  24  87 NE8       30.08S WCI  19
BARABOO/DELLS  CLOUDY    27  23  86 NE3       30.08R
LONE ROCK      CLOUDY    32  29  88 E9        30.09R FOG     WCI  24
MINERAL POINT  CLOUDY    32  32 100 E9        30.05R WCI  24
MADISON        CLOUDY    30  26  85 NE10      30.09R WCI  21
MIDDLETON      CLOUDY    32  30  91 E9        30.08R WCI  24
WATERTOWN      CLOUDY    31  29  95 NE6       30.07S WCI  25
MONROE         CLOUDY    32  30  93 NE10      30.04R WCI  24
JANESVILLE     MOCLDY    34  34 100 NE7       30.05R FOG     WCI  28
$$

WIZ051-052-058>065-066-070>072-170400-
SOUTHEAST WISCONSIN

CITY           SKY/WX    TMP DP  RH WIND       PRES   REMARKS
MILWAUKEE      CLOUDY    36  33  89 NE15      30.08R WCI  27
WAUKESHA       CLOUDY    32  28  86 NE9       30.08R WCI  24
MILWAUKEE/TIMM CLOUDY    34  28  80 NE7       30.10R WCI  28
RACINE         CLOUDY    36  34  92 E12       30.09R WCI  28
BURLINGTON     CLOUDY    49  49 100 NE5       30.06R FOG
KENOSHA        CLOUDY    34  30  85 N6        30.06R WCI  29
FOND DU LAC    CLOUDY    30  21  69 NE3       30.10S
SHEBOYGAN      CLOUDY    31  28  89 E8        30.10F WCI  23
WEST BEND      CLOUDY    30  28  93 NE5       30.08F WCI  25
JUNEAU         CLOUDY    28  24  84 NE7       30.09S WCI  21
$$

LSZ147-162-170400-
LAKE SUPERIOR

STATION/POSITION TIME  TEMP    WIND        PRES    WAVE
                       AIR SEA DIR/SP/G            HT/PER
                 (UTC) (F)     (DEG/KT/KT) (MB)    (FT/S)
DEVILS ISLAND    0300   26     150/  7/  8 1021.1R
SAXON HARBOR     0240   23                 1019.6R
$$

LMZ867-665-643>646-170400-
LAKE MICHIGAN

STATION/POSITION TIME  TEMP    WIND        PRES    WAVE
                       AIR SEA DIR/SP/G            HT/PER
                 (UTC) (F)     (DEG/KT/KT) (MB)    (FT/S)
NORTHPORT PIER   0240   26      80/ 11/ 18 1021.7S
KEWAUNEE LAKESHO 0242   30      80/  6/ 11 1019.8R
SHEBOYGAN LAKESH 0300   32      70/ 12/ 13 1020.2F
PORT WASHINGTON  0240   35      70/ 10/ 12 1020.3R
MILWAUKEE LAKESH 0250   35      70/ 15/ 17   N/A
KENOSHA   LAKESH 0300   36      10/  7/  7 1018.3
$$

TC  - TEMPERATURE IN CELSIUS
VSB - VISIBILITY IN STATUTE MILES
WCI - WIND CHILL INDEX
HX  - HEAT INDEX




USA.gov is the U.S. government's official web portal to all federal, state and local government web resources and services.